Miscellaneous Local Product
Issued by NWS Hastings, NE

Home | Current Version | Previous Version | Text Only | Print | Product List | Glossary On
Versions: 1 2 3 4 5 6 7 8 9 10 11 12 13 14 15 16 17 18 19 20 21 22 23 24 25 26 27 28 29 30 31 32 33 34 35 36 37 38 39 40 41 42 43 44 45 46 47 48 49 50
234
AXUS43 KGID 070202
MISGRI

GID CWA HOURLY WEATHER ROUNDUP
NATIONAL WEATHER SERVICE HASTINGS NE
800 PM CST SAT FEB 06 2016

NOTE: "FAIR" INDICATES FEW OR NO CLOUDS BELOW 12,000 FEET WITH NO
SIGNIFICANT WEATHER AND/OR OBSTRUCTIONS TO VISIBILITY.

...SOUTH CENTRAL NEBRASKA...

CITY           SKY/WX    TMP DP  RH WIND       PRES   REMARKS
GRAND ISLAND   CLOUDY    35  26  69 SW16      29.96F WCI  25
HASTINGS       PTCLDY    35  26  69 SW12      29.97F WCI  27
ORD            CLOUDY    36  27  69 SW10      29.92S WCI  28
YORK           CLOUDY    34  28  80 SW16      29.98F WCI  23
AURORA         CLOUDY    34  27  75 SW17      29.96F WCI  24
LEXINGTON      CLOUDY    35  25  67 W7        29.98S WCI  29
HOLDREGE       CLOUDY    34  28  77 SW10      29.99F WCI  26
HEBRON         PTCLDY    36  28  73 SW10      30.05S WCI  29

...NEBRASKA PANHANDLE...

CITY           SKY/WX    TMP DP  RH WIND       PRES   REMARKS
CHADRON        CLOUDY    38  27  64 W13       30.02R WCI  30
ALLIANCE       CLOUDY    38  26  62 NW20      30.01R WCI  28
SCOTTSBLUFF    CLOUDY    41  23  48 W22G32    30.01R
SIDNEY         CLOUDY    38  28  67 W15       30.00F WCI  29

...WESTERN AND NORTH CENTRAL NEBRASKA...

CITY           SKY/WX    TMP DP  RH WIND       PRES   REMARKS
VALENTINE      CLOUDY    37  29  72 W13       29.91R WCI  29
AINSWORTH      CLOUDY    37  29  73 W8        29.89R WCI  30
ONEILL         CLEAR     38  30  73 SW10      29.88S WCI  31
BROKEN BOW     CLOUDY    34  27  75 W12       29.94S WCI  25
IMPERIAL       CLOUDY    33  25  72 W13       30.01S WCI  24
NORTH PLATTE   CLOUDY    33  24  69 W9        29.98S WCI  25
MCCOOK         CLOUDY    37  25  61 SW13      30.01F WCI  29

...EASTERN NEBRASKA...

CITY           SKY/WX    TMP DP  RH WIND       PRES   REMARKS
NORFOLK        CLOUDY    35  28  75 SW12      29.90S WCI  27
SO SIOUX CITY  CLOUDY    34  26  72 S7        29.92F WCI  28
TEKAMAH        CLOUDY    33  25  72 S14       29.97F WCI  23
COLUMBUS       PTCLDY    34  19  55 SW12      29.96F WCI  25
ALBION         MOCLDY    36  28  73 W3        29.93R
OMAHA EPPLEY   CLOUDY    40  27  59 S9        29.99F WCI  34
OFFUTT AFB     PTCLDY    39  30  70 S10       29.98F WCI  32
MILLARD        PTCLDY    40  27  59 S8        29.99F WCI  35
LINCOLN        PTCLDY    36  26  67 SW12      30.00F WCI  28
NEBRASKA CITY  PTCLDY    37  29  73 S9        30.03S WCI  30
BEATRICE       CLEAR     38  28  65 SW14      30.04S WCI  30
FALLS CITY     CLEAR     40  27  59 S8        30.05F WCI  34

...NORTHERN KANSAS...

CITY           SKY/WX    TMP DP  RH WIND       PRES   REMARKS
GOODLAND       CLOUDY    37  22  54 W17       30.06F WCI  27
HILL CITY      PTCLDY    38  28  67 SW9       30.04F WCI  31
NORTON         CLEAR     36  25  64 SW12      30.02S WCI  27
PHILLIPSBURG   MOCLDY    36  28  75 SW3       30.03F
BELOIT         CLEAR     37  28  70 S6        30.06F WCI  33
HAYS           CLOUDY    37  21  52 SW15      30.07F WCI  28
RUSSELL        CLOUDY    37  28  70 S12       30.06F WCI  29
CONCORDIA      CLOUDY    41  24  51 SW13      30.05F
SALINA         PTCLDY    41  26  55 S10       30.11F
TOPEKA         PTCLDY    43  27  53 SW9       30.14F



USA.gov is the U.S. government's official web portal to all federal, state and local government web resources and services.